METEOR 2-6 DEB, 45500

Orbit data source: Space-Track

METEOR 2-6 DEB, 45500 is space debris in LEO originally from a launch on Tue, 09 Sep 1980 UTC launched from the Plesetsk Missile And Space Complex (PKMTR). Debris objects in space refer to the collection of defunct objects orbiting the Earth. Examples of debris include non-operational satellites, rocket bodies, and fragments generated from explosions, collisions, or faulty payload assembly.

Loading next visibility...
METEOR 2-6 DEB details
Identifier
45500, 1980-073U
Orbit
LEO
Last TLE update3 days ago
Origin
Flag of CISKVR (CIS)
ManufacturerUnknown
MissionSpacecraft
Bus & MotorUnknown
MassUnknown
Launch date (UTC)
1980-09-09 (44 years ago)
Launch vehicleUnknown
Launch site
Plesetsk Missile And Space Complex (PKMTR)
Object type
Payload
Rocket body
Debris
Shape & HBRUnknown
Radar Cross SectionSmall (<0.1 m²)

Expand to show TLE details & history

TLE from 3 days ago
0 METEOR 2-6 DEB
1 45500U 80073U   24345.10182467  .00007725  00000-0  34006-2 0  9995
2 45500  81.2204 257.5208 0046630 230.3569 129.3491 14.22777277422361
Epoch: 2024-12-10T02:26Z
Definitive object data (Epoch: 2024-12-10T02:26:37.651Z)
Latitude0.00003°
Longitude141.54824°
Altitude840.259 km
Speed7.422 km/s
True Right ascension17h 10m 04s
True Declination0° 00' 00"
Sunlit
Object was in daylight at TLE epoch
Visualization TLE readout
Latitude30.73083°
Longitude-46.94438°
Altitude809.183 km
Speed7.457 km/s
Apparent Right ascension01h 06m 46s
Apparent Declination-5° 58' 10"
Sunlit
Object is in full shadow
Visualization observer readout
Local Sidereal Time07:16:37
Azimuth266.984° W
Elevation-5.71°
Doppler factor1
Orbital elements
Apogee altitude846.667 km
Perigee altitude779.601 km
Semi-major axis7,191.271 km
Eccentricity0.004663
Inclination81.2204°
RAAN257.5208°
Arg. of periapsis230.3569°
True anomaly129.76078°
Mean anomaly129.3491°
Eccentric anomaly129.55509°
Mean motion3.55906 °/min
BSTAR0.0034006
Orbital period101.15 mins
Loading maneuver chart data...
Loading historical data...
Loading historical data...
Loading historical data...
Loading historical data...
Loading historical data...
Loading historical data...
Loading historical data...

METEOR 2-6 DEB Visibility forecast

Observer location: undefined°, undefined

Span
Click to sort rows by Start time (UTC) header in descending order
Start Az.
Max El. time (UTC)
Max El. Az.
Max El.
End time (UTC)
End Az.
10 mins2024-12-13 18:18:58.218Z164.537° S2024-12-13 18:23:58.218Z85.539° E36.72°2024-12-13 18:28:58.218Z21.19° NNE
6 mins2024-12-13 20:03:58.218Z260.169° W2024-12-13 20:05:58.218Z287.526° WNW20.078°2024-12-13 20:09:58.218Z336.608° NNW
7 mins2024-12-14 04:55:58.218Z25.581° NE2024-12-14 04:58:58.218Z75.084° E26.888°2024-12-14 05:02:58.218Z130.388° SE
7 mins2024-12-14 06:37:58.218Z317.564° NNW2024-12-14 06:40:58.218Z269.476° W26.996°2024-12-14 06:44:58.218Z213.482° SW
|